• In Deutschland
  • Länderverzeichnis
  • Für 7 Tage
  • Wassertemperatur
  • Satellitenkarten
  • Wetterkarte
  • Widgets
  • user-avatar
    Anmelden

    Stündliche Wetter Klagenfurt

    Heute, 27 Juni, Dienstag

    Zeit Temperatur Niederschläge Wind Luftdruck Luftfeuchtigkeit
    00:00 +13°C° 0 mm 1 m/S 687 mmHg 89%
    01:00 +12°C° 0 mm 0 m/S 687 mmHg 90%
    02:00 +12°C° 0 mm 0 m/S 687 mmHg 90%
    03:00 +12°C° 0 mm 0 m/S 687 mmHg 89%
    04:00 +13°C° 0 mm 1 m/S 687 mmHg 89%
    05:00 +14°C° 0,1 mm 0 m/S 687 mmHg 82%
    06:00 +17°C° 0,1 mm 0 m/S 688 mmHg 75%
    07:00 +19°C° 0,1 mm 0 m/S 688 mmHg 69%
    08:00 +23°C° 0,1 mm 1 m/S 688 mmHg 61%
    09:00 +25°C° 0,1 mm 1 m/S 689 mmHg 53%
    10:00 +26°C° 0,1 mm 1 m/S 689 mmHg 45%
    11:00 +27°C° 0 mm 2 m/S 689 mmHg 44%
    12:00 +28°C° 0 mm 2 m/S 689 mmHg 42%
    13:00 +28°C° 0 mm 3 m/S 688 mmHg 41%
    14:00 +27°C° 0,3 mm 3 m/S 688 mmHg 47%
    15:00 +27°C° 0,3 mm 2 m/S 688 mmHg 53%
    16:00 +26°C° 0,3 mm 2 m/S 688 mmHg 58%
    17:00 +25°C° 0,1 mm 2 m/S 687 mmHg 65%
    18:00 +23°C° 0,1 mm 1 m/S 687 mmHg 71%
    19:00 +22°C° 0,1 mm 1 m/S 686 mmHg 78%
    20:00 +21°C° 0 mm 1 m/S 686 mmHg 82%
    21:00 +19°C° 0 mm 1 m/S 686 mmHg 86%
    22:00 +16°C° 0 mm 1 m/S 686 mmHg 89%
    23:00 +16°C° 0 mm 1 m/S 685 mmHg 90%

    Morgen, 28 Juni, Mittwoch

    Zeit Temperatur Niederschläge Wind Luftdruck Luftfeuchtigkeit
    00:00 +15°C° 0 mm 1 m/S 685 mmHg 90%
    01:00 +15°C° 0 mm 1 m/S 685 mmHg 91%
    02:00 +15°C° 0 mm 1 m/S 684 mmHg 90%
    03:00 +15°C° 0 mm 1 m/S 684 mmHg 90%
    04:00 +15°C° 0 mm 1 m/S 684 mmHg 89%
    05:00 +16°C° 0,1 mm 1 m/S 684 mmHg 85%
    06:00 +19°C° 0,1 mm 1 m/S 684 mmHg 80%
    07:00 +21°C° 0,1 mm 1 m/S 684 mmHg 76%
    08:00 +21°C° 0,4 mm 2 m/S 684 mmHg 73%
    09:00 +23°C° 0,4 mm 2 m/S 684 mmHg 71%
    10:00 +24°C° 0,4 mm 3 m/S 684 mmHg 68%
    11:00 +25°C° 0,9 mm 3 m/S 684 mmHg 65%
    12:00 +26°C° 0,9 mm 3 m/S 683 mmHg 63%
    13:00 +26°C° 0,9 mm 4 m/S 683 mmHg 60%
    14:00 +25°C° 2 mm 3 m/S 683 mmHg 66%
    15:00 +24°C° 2 mm 3 m/S 682 mmHg 73%
    16:00 +22°C° 2 mm 3 m/S 682 mmHg 80%
    17:00 +21°C° 3,8 mm 3 m/S 681 mmHg 83%
    18:00 +20°C° 3,8 mm 2 m/S 681 mmHg 86%
    19:00 +19°C° 3,8 mm 2 m/S 680 mmHg 90%
    20:00 +18°C° 3,8 mm 2 m/S 680 mmHg 91%
    21:00 +18°C° 3,8 mm 2 m/S 680 mmHg 93%
    22:00 +17°C° 3,8 mm 2 m/S 679 mmHg 95%
    23:00 +17°C° 1,2 mm 2 m/S 679 mmHg 95%

    übermorgen, 29 Juni, Donnerstag

    Zeit Temperatur Niederschläge Wind Luftdruck Luftfeuchtigkeit
    00:00 +16°C° 1,2 mm 2 m/S 679 mmHg 96%
    01:00 +16°C° 1,2 mm 2 m/S 678 mmHg 96%
    02:00 +15°C° 0,7 mm 2 m/S 678 mmHg 96%
    03:00 +15°C° 0,7 mm 2 m/S 678 mmHg 95%
    04:00 +15°C° 0,7 mm 2 m/S 678 mmHg 95%
    05:00 +15°C° 0,2 mm 2 m/S 678 mmHg 93%
    06:00 +16°C° 0,2 mm 3 m/S 678 mmHg 91%
    07:00 +17°C° 0,2 mm 3 m/S 679 mmHg 89%
    08:00 +18°C° 0,2 mm 3 m/S 679 mmHg 82%
    09:00 +19°C° 0,2 mm 4 m/S 680 mmHg 75%
    10:00 +20°C° 0,2 mm 4 m/S 680 mmHg 68%
    11:00 +20°C° 0,3 mm 4 m/S 681 mmHg 66%
    12:00 +21°C° 0,3 mm 5 m/S 681 mmHg 63%
    13:00 +22°C° 0,3 mm 5 m/S 681 mmHg 61%
    14:00 +22°C° 0,2 mm 5 m/S 681 mmHg 58%
    15:00 +22°C° 0,2 mm 5 m/S 682 mmHg 55%
    16:00 +22°C° 0,2 mm 5 m/S 682 mmHg 53%
    17:00 +21°C° 0,1 mm 4 m/S 682 mmHg 59%
    18:00 +20°C° 0,1 mm 3 m/S 682 mmHg 65%
    19:00 +19°C° 0,1 mm 3 m/S 682 mmHg 71%
    20:00 +17°C° 0,1 mm 2 m/S 683 mmHg 75%
    21:00 +15°C° 0,1 mm 2 m/S 683 mmHg 79%
    22:00 +14°C° 0,1 mm 2 m/S 683 mmHg 83%
    23:00 +13°C° 0 mm 2 m/S 683 mmHg 85%

    30 Juni, Freitag

    Zeit Temperatur Niederschläge Wind Luftdruck Luftfeuchtigkeit
    00:00 +13°C° 0 mm 2 m/S 684 mmHg 87%
    01:00 +12°C° 0 mm 1 m/S 684 mmHg 89%
    02:00 +11°C° 0 mm 1 m/S 684 mmHg 90%
    03:00 +11°C° 0 mm 1 m/S 684 mmHg 91%
    04:00 +10°C° 0 mm 1 m/S 684 mmHg 92%
    05:00 +12°C° 0 mm 1 m/S 685 mmHg 85%
    06:00 +15°C° 0 mm 1 m/S 685 mmHg 79%
    07:00 +17°C° 0 mm 2 m/S 686 mmHg 73%
    08:00 +18°C° 0 mm 2 m/S 686 mmHg 65%
    09:00 +20°C° 0 mm 3 m/S 687 mmHg 58%
    10:00 +21°C° 0 mm 3 m/S 687 mmHg 51%
    11:00 +21°C° 0,1 mm 4 m/S 687 mmHg 49%
    12:00 +22°C° 0,1 mm 4 m/S 687 mmHg 47%
    13:00 +22°C° 0,1 mm 5 m/S 687 mmHg 45%
    14:00 +22°C° 0,1 mm 5 m/S 687 mmHg 47%
    15:00 +21°C° 0,1 mm 5 m/S 687 mmHg 49%
    16:00 +21°C° 0,1 mm 4 m/S 687 mmHg 51%
    17:00 +20°C° 0,1 mm 4 m/S 687 mmHg 58%
    18:00 +18°C° 0,1 mm 3 m/S 687 mmHg 66%
    19:00 +17°C° 0,1 mm 2 m/S 687 mmHg 73%
    20:00 +16°C° 0,1 mm 2 m/S 687 mmHg 77%
    21:00 +15°C° 0,1 mm 2 m/S 687 mmHg 82%
    22:00 +14°C° 0,1 mm 2 m/S 687 mmHg 86%
    23:00 +14°C° 0,2 mm 1 m/S 687 mmHg 88%

    1 Juli, Samstag

    Zeit Temperatur Niederschläge Wind Luftdruck Luftfeuchtigkeit
    00:00 +13°C° 0,2 mm 1 m/S 687 mmHg 90%
    01:00 +13°C° 0,2 mm 1 m/S 687 mmHg 91%
    02:00 +12°C° 0,1 mm 1 m/S 686 mmHg 93%
    03:00 +11°C° 0,1 mm 1 m/S 686 mmHg 94%
    04:00 +10°C° 0,1 mm 1 m/S 686 mmHg 95%
    05:00 +12°C° 0 mm 1 m/S 686 mmHg 89%
    06:00 +13°C° 0 mm 0 m/S 687 mmHg 82%
    07:00 +16°C° 0 mm 0 m/S 687 mmHg 75%
    08:00 +17°C° 0,2 mm 0 m/S 688 mmHg 68%
    09:00 +21°C° 0,2 mm 1 m/S 688 mmHg 60%
    10:00 +22°C° 0,2 mm 1 m/S 689 mmHg 52%
    11:00 +23°C° 0,1 mm 1 m/S 689 mmHg 48%
    12:00 +24°C° 0,1 mm 2 m/S 689 mmHg 44%
    13:00 +24°C° 0,1 mm 2 m/S 689 mmHg 39%
    14:00 +24°C° 0,2 mm 2 m/S 688 mmHg 42%
    15:00 +24°C° 0,2 mm 3 m/S 688 mmHg 44%
    16:00 +22°C° 0,2 mm 3 m/S 688 mmHg 47%
    17:00 +21°C° 0,4 mm 2 m/S 688 mmHg 58%
    18:00 +19°C° 0,4 mm 2 m/S 688 mmHg 69%
    19:00 +18°C° 0,4 mm 1 m/S 688 mmHg 80%
    20:00 +15°C° 0,4 mm 1 m/S 688 mmHg 84%
    21:00 +14°C° 0,4 mm 1 m/S 688 mmHg 87%
    22:00 +12°C° 0,4 mm 1 m/S 688 mmHg 91%
    23:00 +11°C° 0,1 mm 1 m/S 688 mmHg 91%

    2 Juli, Sonntag

    Zeit Temperatur Niederschläge Wind Luftdruck Luftfeuchtigkeit
    00:00 +11°C° 0,1 mm 1 m/S 688 mmHg 92%
    01:00 +10°C° 0,1 mm 1 m/S 688 mmHg 92%
    02:00 +10°C° 0 mm 1 m/S 688 mmHg 92%
    03:00 +10°C° 0 mm 1 m/S 688 mmHg 92%
    04:00 +10°C° 0 mm 1 m/S 688 mmHg 92%
    05:00 +12°C° 0 mm 1 m/S 689 mmHg 86%
    06:00 +14°C° 0 mm 1 m/S 690 mmHg 81%
    07:00 +16°C° 0 mm 1 m/S 690 mmHg 76%
    08:00 +18°C° 0 mm 1 m/S 691 mmHg 68%
    09:00 +20°C° 0 mm 1 m/S 691 mmHg 61%
    10:00 +22°C° 0 mm 1 m/S 692 mmHg 53%
    11:00 +22°C° 0,1 mm 1 m/S 692 mmHg 52%
    12:00 +23°C° 0,1 mm 1 m/S 692 mmHg 51%
    13:00 +23°C° 0,1 mm 1 m/S 692 mmHg 50%
    14:00 +23°C° 0,1 mm 1 m/S 691 mmHg 52%
    15:00 +23°C° 0,1 mm 1 m/S 691 mmHg 54%
    16:00 +22°C° 0,1 mm 1 m/S 691 mmHg 56%
    17:00 +21°C° 0,1 mm 1 m/S 691 mmHg 63%
    18:00 +20°C° 0,1 mm 1 m/S 691 mmHg 71%
    19:00 +19°C° 0,1 mm 1 m/S 691 mmHg 78%
    20:00 +16°C° 0 mm 1 m/S 690 mmHg 82%
    21:00 +13°C° 0 mm 1 m/S 690 mmHg 86%
    22:00 +11°C° 0 mm 1 m/S 690 mmHg 90%
    23:00 +11°C° 0 mm 1 m/S 690 mmHg 90%
    Mehr zeigen